Location: Oshawa
(43.9000°N, 78.8670°W)
Time: 02:53:24
(UTC-04:00)

Cosmos 1805 Rocket - Visible Passes

Search period start: 29 July 2015 00:00
Search period end: 08 August 2015 00:00
Orbit: 607 x 630 km, 82.5° (Epoch: 28 July)

Date Brightness Start Highest point End Pass type
(mag) Time Alt. Az. Time Alt. Az. Time Alt. Az.
29 Jul 6.5 02:59:58 10° NE 03:01:14 11° ENE 03:02:43 10° E visible
29 Jul 3.5 04:35:23 10° NNW 04:39:47 74° W 04:44:08 10° S visible
30 Jul 6.0 03:15:42 10° NNE 03:18:52 20° ENE 03:22:07 10° ESE visible
30 Jul 4.1 04:52:52 10° NNW 04:56:59 39° W 05:01:01 10° SSW visible
31 Jul 5.1 03:32:22 10° N 03:36:22 34° ENE 03:40:22 10° SE visible
31 Jul 4.9 05:10:40 10° NW 05:14:05 22° W 05:17:22 10° SW visible
01 Aug 3.9 03:49:23 10° N 03:53:45 62° E 03:56:55 18° SSE visible
01 Aug 5.5 05:29:19 10° WNW 05:31:07 12° W 05:32:43 10° WSW visible
02 Aug 6.4 02:31:01 10° NE 02:32:29 12° ENE 02:34:10 10° E visible
02 Aug 3.5 04:06:38 10° NNW 04:11:01 70° W 04:13:23 26° S visible
03 Aug 5.8 02:46:53 10° NNE 02:50:07 20° ENE 02:52:48 13° ESE visible
03 Aug 4.2 04:24:07 10° NNW 04:28:12 37° W 04:29:54 26° SW visible
04 Aug 4.9 03:03:35 10° N 03:07:36 35° ENE 03:09:23 25° ESE visible
04 Aug 4.9 04:41:58 10° NW 04:45:18 21° W 04:46:29 18° WSW visible
05 Aug 3.8 03:20:36 10° N 03:24:58 65° E 03:26:00 48° SE visible
05 Aug 5.6 05:00:46 10° WNW 05:02:20 11° W 05:03:07 11° W visible
06 Aug 6.2 02:02:05 10° NE 02:03:44 12° ENE 02:05:33 10° E visible
06 Aug 3.4 03:37:52 10° NNW 03:42:13 67° W 03:42:40 62° SW visible
07 Aug 5.6 02:18:04 10° NNE 02:21:21 21° ENE 02:22:15 20° E visible
07 Aug 4.2 03:55:23 10° NNW 03:59:22 35° W 03:59:22 35° W visible
